Time,TemperatureF,DewpointF,PressureIn,WindDirection,WindDirectionDegrees,WindSpeedMPH,WindSpeedGustMPH,Humidity,HourlyPrecipIn,Conditions,Clouds,dailyrainin,SoftwareType,DateUTC
2013-01-29 00:01:00,31.9,31.7,29.34,North,0,0.0,-999.0,99,0.00,,,-99.99,,2013-01-29 09:01:00,
2013-01-29 00:06:00,31.9,31.7,29.34,North,0,0.0,-999.0,99,0.00,,,-99.99,,2013-01-29 09:06:00,
2013-01-29 00:11:00,32.0,31.8,29.34,North,0,0.0,-999.0,99,0.00,,,-99.99,,2013-01-29 09:11:00,
2013-01-29 00:16:00,31.9,31.7,29.34,North,0,0.0,-999.0,99,0.00,,,-99.99,,2013-01-29 09:16:00,
2013-01-29 00:21:00,32.0,31.8,29.34,North,0,0.0,-999.0,99,0.00,,,-99.99,,2013-01-29 09:21:00,
2013-01-29 00:26:00,32.1,31.9,29.34,North,0,0.0,-999.0,99,0.00,,,-99.99,,2013-01-29 09:26:00,
2013-01-29 00:31:00,32.1,31.9,29.34,North,0,0.0,-999.0,99,0.00,,,-99.99,,2013-01-29 09:31:00,
2013-01-29 00:36:00,32.2,32.0,29.34,North,0,0.0,-999.0,99,0.00,,,-99.99,,2013-01-29 09:36:00,
2013-01-29 00:41:00,32.2,32.0,29.34,North,0,0.0,-999.0,99,0.00,,,-99.99,,2013-01-29 09:41:00,
2013-01-29 00:46:00,32.3,32.1,29.34,North,0,0.0,-999.0,99,0.00,,,-99.99,,2013-01-29 09:46:00,
2013-01-29 00:51:00,32.4,32.2,29.34,North,0,0.0,-999.0,99,0.00,,,-99.99,,2013-01-29 09:51:00,
2013-01-29 00:56:00,32.5,32.3,29.34,North,0,0.0,-999.0,99,0.00,,,-99.99,,2013-01-29 09:56:00,
2013-01-29 01:01:00,32.4,32.2,29.34,North,0,0.0,-999.0,99,0.00,,,-99.99,,2013-01-29 10:01:00,
2013-01-29 01:06:00,32.5,32.4,29.34,North,0,0.0,-999.0,99,0.00,,,-99.99,,2013-01-29 10:06:00,
2013-01-29 01:11:00,32.5,32.3,29.34,North,0,0.0,-999.0,99,0.00,,,-99.99,,2013-01-29 10:11:00,
2013-01-29 01:16:00,32.5,32.3,29.34,North,0,0.0,-999.0,99,0.00,,,-99.99,,2013-01-29 10:16:00,
2013-01-29 01:21:00,32.6,32.4,29.34,North,0,0.0,-999.0,99,0.00,,,-99.99,,2013-01-29 10:21:00,
2013-01-29 01:26:00,32.5,32.3,29.34,North,0,0.0,-999.0,99,0.00,,,-99.99,,2013-01-29 10:26:00,
2013-01-29 01:31:00,32.7,32.5,29.34,North,0,0.0,-999.0,99,0.00,,,-99.99,,2013-01-29 10:31:00,
2013-01-29 01:36:00,32.6,32.4,29.34,North,0,0.0,-999.0,99,0.00,,,-99.99,,2013-01-29 10:36:00,
2013-01-29 01:41:00,32.7,32.5,29.34,North,0,0.0,-999.0,99,0.00,,,-99.99,,2013-01-29 10:41:00,
2013-01-29 01:46:00,32.8,32.6,29.34,North,0,0.0,-999.0,99,0.00,,,-99.99,,2013-01-29 10:46:00,
2013-01-29 01:51:00,32.7,32.5,29.34,North,0,0.0,-999.0,99,0.00,,,-99.99,,2013-01-29 10:51:00,
2013-01-29 01:56:00,32.8,32.6,29.34,North,0,0.0,-999.0,99,0.00,,,-99.99,,2013-01-29 10:56:00,
2013-01-29 02:01:00,32.7,32.5,29.35,North,0,0.0,-999.0,99,0.00,,,-99.99,,2013-01-29 11:01:00,
2013-01-29 02:06:00,32.9,32.7,29.35,North,0,0.0,-999.0,99,0.00,,,-99.99,,2013-01-29 11:06:00,
2013-01-29 02:11:00,32.9,32.7,29.35,North,0,0.0,-999.0,99,0.00,,,-99.99,,2013-01-29 11:11:00,
2013-01-29 02:16:00,32.9,32.6,29.35,North,0,0.0,-999.0,99,0.00,,,-99.99,,2013-01-29 11:16:00,
2013-01-29 02:21:00,33.0,32.8,29.35,North,0,0.0,-999.0,99,0.00,,,-99.99,,2013-01-29 11:21:00,
2013-01-29 02:26:00,32.9,32.6,29.35,North,0,0.0,-999.0,99,0.00,,,-99.99,,2013-01-29 11:26:00,
2013-01-29 02:31:00,33.0,32.8,29.35,North,0,0.0,-999.0,98,0.00,,,-99.99,,2013-01-29 11:31:00,
2013-01-29 02:36:00,33.0,32.7,29.35,North,0,0.0,-999.0,98,0.00,,,-99.99,,2013-01-29 11:36:00,
2013-01-29 02:41:00,33.0,32.7,29.35,North,0,0.0,-999.0,98,0.00,,,-99.99,,2013-01-29 11:41:00,
2013-01-29 02:46:00,32.9,32.7,29.35,North,0,0.0,-999.0,99,0.00,,,-99.99,,2013-01-29 11:46:00,
2013-01-29 02:51:00,33.2,32.9,29.35,North,0,0.0,-999.0,98,0.00,,,-99.99,,2013-01-29 11:51:00,
2013-01-29 02:56:00,33.3,33.0,29.35,North,0,0.0,-999.0,98,0.00,,,-99.99,,2013-01-29 11:56:00,
2013-01-29 03:01:00,33.3,33.0,29.34,North,0,0.0,-999.0,98,0.00,,,-99.99,,2013-01-29 12:01:00,
2013-01-29 03:06:00,33.3,33.0,29.34,North,0,0.0,-999.0,98,0.00,,,-99.99,,2013-01-29 12:06:00,
2013-01-29 03:11:00,33.5,33.2,29.34,North,0,0.0,-999.0,98,0.00,,,-99.99,,2013-01-29 12:11:00,
2013-01-29 03:16:00,33.6,33.3,29.34,North,0,0.0,-999.0,98,0.00,,,-99.99,,2013-01-29 12:16:00,
2013-01-29 03:21:00,33.5,33.2,29.34,North,0,0.0,-999.0,98,0.00,,,-99.99,,2013-01-29 12:21:00,
2013-01-29 03:26:00,33.7,33.3,29.34,North,0,0.0,-999.0,98,0.00,,,-99.99,,2013-01-29 12:26:00,
2013-01-29 03:31:00,33.7,33.3,29.34,North,0,0.0,-999.0,98,0.00,,,-99.99,,2013-01-29 12:31:00,
2013-01-29 03:36:00,33.8,33.5,29.34,North,0,0.0,-999.0,98,0.00,,,-99.99,,2013-01-29 12:36:00,
2013-01-29 03:41:00,33.8,33.4,29.34,North,0,0.0,-999.0,98,0.00,,,-99.99,,2013-01-29 12:41:00,
2013-01-29 03:46:00,34.0,33.6,29.34,North,0,0.0,-999.0,98,0.00,,,-99.99,,2013-01-29 12:46:00,
2013-01-29 03:51:00,33.8,33.4,29.34,North,0,0.0,-999.0,98,0.00,,,-99.99,,2013-01-29 12:51:00,
2013-01-29 03:56:00,34.1,33.7,29.34,North,0,0.0,-999.0,98,0.00,,,-99.99,,2013-01-29 12:56:00,
2013-01-29 04:01:00,34.0,33.5,29.34,North,0,0.0,-999.0,98,0.00,,,-99.99,,2013-01-29 13:01:00,
2013-01-29 04:06:00,34.0,33.6,29.34,North,0,0.0,-999.0,98,0.00,,,-99.99,,2013-01-29 13:06:00,
2013-01-29 04:11:00,33.9,33.5,29.34,North,0,0.0,-999.0,98,0.00,,,-99.99,,2013-01-29 13:11:00,
2013-01-29 04:16:00,34.1,33.7,29.34,North,0,0.0,-999.0,98,0.00,,,-99.99,,2013-01-29 13:16:00,
2013-01-29 04:21:00,34.0,33.5,29.34,North,0,0.0,-999.0,98,0.00,,,-99.99,,2013-01-29 13:21:00,
2013-01-29 04:26:00,33.9,33.5,29.34,North,0,0.0,-999.0,98,0.00,,,-99.99,,2013-01-29 13:26:00,
2013-01-29 04:31:00,34.1,33.7,29.34,North,0,0.0,-999.0,98,0.00,,,-99.99,,2013-01-29 13:31:00,
2013-01-29 04:36:00,34.1,33.7,29.34,North,0,0.0,-999.0,98,0.00,,,-99.99,,2013-01-29 13:36:00,
2013-01-29 04:42:00,34.4,34.0,29.34,North,0,0.0,-999.0,98,0.00,,,-99.99,,2013-01-29 13:42:00,
2013-01-29 04:47:00,34.2,33.8,29.34,North,0,0.0,-999.0,98,0.00,,,-99.99,,2013-01-29 13:47:00,
2013-01-29 04:52:00,34.3,33.8,29.34,North,0,0.0,-999.0,98,0.00,,,-99.99,,2013-01-29 13:52:00,
2013-01-29 04:57:00,34.3,33.9,29.34,North,0,0.0,-999.0,98,0.00,,,-99.99,,2013-01-29 13:57:00,
2013-01-29 05:02:00,34.4,33.9,29.36,North,0,0.0,-999.0,98,0.00,,,-99.99,,2013-01-29 14:02:00,
2013-01-29 05:07:00,34.4,34.0,29.36,North,0,0.0,-999.0,98,0.00,,,-99.99,,2013-01-29 14:07:00,
2013-01-29 05:12:00,34.4,34.0,29.36,North,0,0.0,-999.0,98,0.00,,,-99.99,,2013-01-29 14:12:00,
2013-01-29 05:17:00,34.4,34.0,29.36,North,0,0.0,-999.0,98,0.00,,,-99.99,,2013-01-29 14:17:00,
2013-01-29 05:22:00,34.6,34.1,29.36,North,0,0.0,-999.0,98,0.00,,,-99.99,,2013-01-29 14:22:00,
2013-01-29 05:27:00,34.4,34.0,29.36,North,0,0.0,-999.0,98,0.00,,,-99.99,,2013-01-29 14:27:00,
2013-01-29 05:32:00,34.5,34.1,29.36,North,0,0.0,-999.0,98,0.00,,,-99.99,,2013-01-29 14:32:00,
2013-01-29 05:37:00,34.4,33.9,29.36,North,0,0.0,-999.0,98,0.00,,,-99.99,,2013-01-29 14:37:00,
2013-01-29 05:42:00,34.6,34.2,29.36,North,0,0.0,-999.0,98,0.00,,,-99.99,,2013-01-29 14:42:00,
2013-01-29 05:47:00,34.5,34.0,29.36,North,0,0.0,-999.0,98,0.00,,,-99.99,,2013-01-29 14:47:00,
2013-01-29 05:52:00,34.7,34.3,29.36,North,0,0.0,-999.0,98,0.00,,,-99.99,,2013-01-29 14:52:00,
2013-01-29 05:57:00,34.8,34.3,29.36,North,0,0.0,-999.0,98,0.00,,,-99.99,,2013-01-29 14:57:00,
2013-01-29 06:02:00,34.7,34.2,29.37,North,0,0.0,-999.0,98,0.00,,,-99.99,,2013-01-29 15:02:00,
2013-01-29 06:07:00,34.8,34.4,29.37,North,0,0.0,-999.0,98,0.00,,,-99.99,,2013-01-29 15:07:00,
2013-01-29 06:12:00,34.9,34.4,29.37,North,0,0.0,-999.0,98,0.00,,,-99.99,,2013-01-29 15:12:00,
2013-01-29 06:17:00,34.9,34.4,29.37,North,0,0.0,-999.0,98,0.00,,,-99.99,,2013-01-29 15:17:00,
2013-01-29 06:22:00,34.8,34.3,29.37,North,0,0.0,-999.0,98,0.00,,,-99.99,,2013-01-29 15:22:00,
2013-01-29 06:27:00,34.9,34.4,29.37,North,0,0.0,-999.0,98,0.00,,,-99.99,,2013-01-29 15:27:00,
2013-01-29 06:32:00,34.9,34.5,29.37,North,0,0.0,-999.0,98,0.00,,,-99.99,,2013-01-29 15:32:00,
2013-01-29 06:37:00,34.8,34.3,29.37,North,0,0.0,-999.0,98,0.00,,,-99.99,,2013-01-29 15:37:00,
2013-01-29 06:42:00,35.0,34.6,29.37,North,0,0.0,-999.0,98,0.00,,,-99.99,,2013-01-29 15:42:00,
2013-01-29 06:47:00,34.9,34.4,29.37,North,0,0.0,-999.0,98,0.00,,,-99.99,,2013-01-29 15:47:00,
2013-01-29 06:52:00,34.8,34.3,29.37,North,0,0.0,-999.0,98,0.00,,,-99.99,,2013-01-29 15:52:00,
2013-01-29 06:57:00,34.9,34.4,29.37,North,0,0.0,-999.0,98,0.00,,,-99.99,,2013-01-29 15:57:00,
2013-01-29 07:02:00,34.9,34.5,29.39,North,0,0.0,-999.0,98,0.00,,,-99.99,,2013-01-29 16:02:00,
2013-01-29 07:07:00,35.0,34.6,29.39,North,0,0.0,-999.0,98,0.00,,,-99.99,,2013-01-29 16:07:00,
2013-01-29 07:12:00,35.0,34.6,29.39,North,0,0.0,-999.0,98,0.00,,,-99.99,,2013-01-29 16:12:00,
2013-01-29 07:17:00,35.0,34.5,29.39,North,0,0.0,-999.0,98,0.00,,,-99.99,,2013-01-29 16:17:00,
2013-01-29 07:22:00,35.0,34.5,29.39,North,0,0.0,-999.0,98,0.00,,,-99.99,,2013-01-29 16:22:00,
2013-01-29 07:27:00,34.8,34.4,29.39,North,0,0.0,-999.0,98,0.00,,,-99.99,,2013-01-29 16:27:00,
2013-01-29 07:32:00,35.0,34.6,29.39,North,0,0.0,-999.0,98,0.00,,,-99.99,,2013-01-29 16:32:00,
2013-01-29 07:38:00,34.9,34.5,29.39,North,0,0.0,-999.0,98,0.00,,,-99.99,,2013-01-29 16:38:00,
2013-01-29 07:43:00,35.2,34.7,29.39,North,0,0.0,-999.0,98,0.00,,,-99.99,,2013-01-29 16:43:00,
2013-01-29 07:48:00,35.0,34.6,29.39,North,0,0.0,-999.0,98,0.00,,,-99.99,,2013-01-29 16:48:00,
2013-01-29 07:53:00,35.1,34.7,29.39,North,0,0.0,-999.0,98,0.00,,,-99.99,,2013-01-29 16:53:00,
2013-01-29 07:58:00,35.0,34.6,29.39,North,0,0.0,-999.0,98,0.01,,,-99.99,,2013-01-29 16:58:00,
2013-01-29 08:04:00,35.3,34.8,29.42,North,0,0.0,-999.0,98,0.00,,,-99.99,,2013-01-29 17:04:00,
2013-01-29 08:10:00,35.3,34.8,29.42,North,0,0.0,-999.0,98,0.00,,,-99.99,,2013-01-29 17:10:00,
2013-01-29 08:15:00,35.2,34.7,29.42,North,0,0.0,-999.0,98,0.00,,,-99.99,,2013-01-29 17:15:00,
2013-01-29 08:20:00,35.2,34.7,29.42,North,0,0.0,-999.0,98,0.00,,,-99.99,,2013-01-29 17:20:00,
2013-01-29 08:25:00,35.2,34.8,29.42,North,0,0.0,-999.0,98,0.00,,,-99.99,,2013-01-29 17:25:00,
2013-01-29 08:30:00,35.2,34.7,29.42,North,0,0.0,-999.0,98,0.00,,,-99.99,,2013-01-29 17:30:00,
2013-01-29 08:35:00,34.9,34.3,29.42,North,0,0.0,-999.0,97,0.00,,,-99.99,,2013-01-29 17:35:00,
2013-01-29 08:40:00,35.0,34.6,29.42,North,0,0.0,-999.0,98,0.00,,,-99.99,,2013-01-29 17:40:00,
2013-01-29 08:45:00,35.1,34.6,29.42,North,0,0.0,-999.0,98,0.00,,,-99.99,,2013-01-29 17:45:00,
2013-01-29 08:50:00,35.2,34.7,29.42,North,0,0.0,-999.0,98,0.01,,,-99.99,,2013-01-29 17:50:00,
2013-01-29 08:55:00,35.3,34.8,29.42,North,0,0.0,-999.0,98,0.01,,,-99.99,,2013-01-29 17:55:00,
2013-01-29 09:00:00,35.2,34.8,29.44,North,0,0.0,-999.0,98,0.00,,,-99.99,,2013-01-29 18:00:00,
2013-01-29 09:05:00,35.4,34.9,29.44,North,0,0.0,-999.0,98,0.00,,,-99.99,,2013-01-29 18:05:00,
2013-01-29 09:10:00,35.2,34.8,29.44,North,0,0.0,-999.0,98,0.01,,,-99.99,,2013-01-29 18:10:00,
2013-01-29 09:15:00,35.4,34.9,29.44,North,0,0.0,-999.0,98,0.01,,,-99.99,,2013-01-29 18:15:00,
2013-01-29 09:20:00,35.4,34.9,29.44,North,0,0.0,-999.0,98,0.01,,,-99.99,,2013-01-29 18:20:00,
2013-01-29 09:25:00,35.3,34.8,29.44,North,0,0.0,-999.0,98,0.02,,,-99.99,,2013-01-29 18:25:00,
2013-01-29 09:30:00,35.5,35.1,29.44,North,0,0.0,-999.0,98,0.03,,,-99.99,,2013-01-29 18:30:00,
2013-01-29 09:35:00,35.4,34.9,29.44,North,0,0.0,-999.0,98,0.03,,,-99.99,,2013-01-29 18:35:00,
2013-01-29 09:40:00,35.5,35.0,29.44,North,0,0.0,-999.0,98,0.04,,,-99.99,,2013-01-29 18:40:00,
2013-01-29 09:45:00,35.6,35.2,29.44,North,0,0.0,-999.0,98,0.05,,,-99.99,,2013-01-29 18:45:00,
2013-01-29 09:50:00,35.5,35.1,29.44,North,0,0.0,-999.0,98,0.06,,,-99.99,,2013-01-29 18:50:00,
2013-01-29 09:55:00,35.7,35.2,29.44,North,0,0.0,-999.0,98,0.07,,,-99.99,,2013-01-29 18:55:00,
2013-01-29 10:00:00,35.7,35.3,29.45,North,0,0.0,-999.0,98,0.00,,,-99.99,,2013-01-29 19:00:00,
2013-01-29 10:05:00,35.6,35.1,29.45,North,0,0.0,-999.0,98,0.01,,,-99.99,,2013-01-29 19:05:00,
2013-01-29 10:10:00,35.8,35.3,29.45,North,0,0.0,-999.0,98,0.03,,,-99.99,,2013-01-29 19:10:00,
2013-01-29 10:15:00,35.8,35.4,29.45,North,0,0.0,-999.0,98,0.04,,,-99.99,,2013-01-29 19:15:00,
2013-01-29 10:20:00,36.0,35.5,29.45,North,0,0.0,-999.0,98,0.05,,,-99.99,,2013-01-29 19:20:00,
2013-01-29 10:25:00,35.8,35.2,29.45,North,0,0.0,-999.0,97,0.06,,,-99.99,,2013-01-29 19:25:00,
2013-01-29 10:30:00,35.9,35.4,29.45,North,0,0.0,-999.0,98,0.07,,,-99.99,,2013-01-29 19:30:00,
2013-01-29 10:35:00,36.1,35.6,29.45,North,0,0.0,-999.0,98,0.08,,,-99.99,,2013-01-29 19:35:00,
2013-01-29 10:40:00,36.0,35.5,29.45,North,0,0.0,-999.0,97,0.09,,,-99.99,,2013-01-29 19:40:00,
2013-01-29 10:45:00,36.2,35.7,29.45,North,0,0.0,-999.0,98,0.10,,,-99.99,,2013-01-29 19:45:00,
2013-01-29 10:50:00,36.3,35.8,29.45,North,0,0.0,-999.0,98,0.10,,,-99.99,,2013-01-29 19:50:00,
2013-01-29 10:55:00,36.3,35.8,29.45,North,0,0.0,-999.0,98,0.11,,,-99.99,,2013-01-29 19:55:00,
2013-01-29 11:00:00,36.3,35.8,29.47,North,0,0.0,-999.0,98,0.00,,,-99.99,,2013-01-29 20:00:00,
2013-01-29 11:05:00,36.5,35.9,29.47,North,0,0.0,-999.0,97,0.01,,,-99.99,,2013-01-29 20:05:00,
2013-01-29 11:10:00,36.5,36.0,29.47,North,0,0.0,-999.0,98,0.01,,,-99.99,,2013-01-29 20:10:00,
2013-01-29 11:15:00,36.5,35.9,29.47,North,0,0.0,-999.0,97,0.02,,,-99.99,,2013-01-29 20:15:00,
2013-01-29 11:20:00,36.5,35.9,29.47,North,0,0.0,-999.0,97,0.03,,,-99.99,,2013-01-29 20:20:00,
2013-01-29 11:25:00,36.8,36.2,29.47,North,0,0.0,-999.0,97,0.03,,,-99.99,,2013-01-29 20:25:00,
2013-01-29 11:30:00,36.7,36.1,29.47,North,0,0.0,-999.0,97,0.04,,,-99.99,,2013-01-29 20:30:00,
2013-01-29 11:35:00,36.7,36.2,29.47,North,0,0.0,-999.0,97,0.05,,,-99.99,,2013-01-29 20:35:00,
2013-01-29 11:40:00,36.7,36.2,29.47,North,0,0.0,-999.0,98,0.05,,,-99.99,,2013-01-29 20:40:00,
2013-01-29 11:45:00,36.8,36.2,29.47,North,0,0.0,-999.0,97,0.06,,,-99.99,,2013-01-29 20:45:00,
2013-01-29 11:50:00,36.8,36.2,29.47,North,0,0.0,-999.0,97,0.06,,,-99.99,,2013-01-29 20:50:00,
2013-01-29 11:55:00,36.7,36.1,29.47,North,0,0.0,-999.0,97,0.07,,,-99.99,,2013-01-29 20:55:00,
2013-01-29 12:00:00,36.9,36.4,29.49,North,0,0.0,-999.0,98,0.00,,,-99.99,,2013-01-29 21:00:00,
2013-01-29 12:05:00,37.0,36.5,29.49,North,0,0.0,-999.0,97,0.01,,,-99.99,,2013-01-29 21:05:00,
2013-01-29 12:10:00,36.9,36.4,29.49,North,0,0.0,-999.0,98,0.01,,,-99.99,,2013-01-29 21:10:00,
2013-01-29 12:15:00,37.0,36.5,29.49,North,0,0.0,-999.0,97,0.02,,,-99.99,,2013-01-29 21:15:00,
2013-01-29 12:20:00,37.0,36.5,29.49,North,0,0.0,-999.0,97,0.02,,,-99.99,,2013-01-29 21:20:00,
2013-01-29 12:25:00,37.3,36.8,29.49,North,0,0.0,-999.0,97,0.02,,,-99.99,,2013-01-29 21:25:00,
2013-01-29 12:31:00,37.0,36.5,29.49,North,0,0.0,-999.0,97,0.03,,,-99.99,,2013-01-29 21:31:00,
2013-01-29 12:36:00,37.1,36.6,29.49,North,0,0.0,-999.0,97,0.03,,,-99.99,,2013-01-29 21:36:00,
2013-01-29 12:41:00,37.1,36.6,29.49,North,0,0.0,-999.0,97,0.04,,,-99.99,,2013-01-29 21:41:00,
2013-01-29 12:46:00,37.3,36.8,29.49,North,0,0.0,-999.0,97,0.04,,,-99.99,,2013-01-29 21:46:00,
2013-01-29 12:51:00,37.3,36.8,29.49,North,0,0.0,-999.0,98,0.04,,,-99.99,,2013-01-29 21:51:00,
2013-01-29 12:56:00,37.5,37.0,29.49,North,0,0.0,-999.0,98,0.05,,,-99.99,,2013-01-29 21:56:00,
2013-01-29 13:01:00,37.3,36.8,29.50,North,0,0.0,-999.0,97,0.00,,,-99.99,,2013-01-29 22:01:00,
2013-01-29 13:06:00,37.5,37.0,29.50,North,0,0.0,-999.0,98,0.00,,,-99.99,,2013-01-29 22:06:00,
2013-01-29 13:11:00,37.5,37.0,29.50,North,0,0.0,-999.0,98,0.01,,,-99.99,,2013-01-29 22:11:00,
2013-01-29 13:16:00,37.7,37.2,29.50,North,0,0.0,-999.0,98,0.01,,,-99.99,,2013-01-29 22:16:00,
2013-01-29 13:21:00,37.6,37.1,29.50,North,0,0.0,-999.0,98,0.01,,,-99.99,,2013-01-29 22:21:00,
2013-01-29 13:26:00,37.6,37.1,29.50,North,0,0.0,-999.0,98,0.02,,,-99.99,,2013-01-29 22:26:00,
2013-01-29 13:31:00,37.5,37.0,29.50,North,0,0.0,-999.0,97,0.02,,,-99.99,,2013-01-29 22:31:00,
2013-01-29 13:36:00,37.6,37.1,29.50,North,0,0.0,-999.0,98,0.02,,,-99.99,,2013-01-29 22:36:00,
2013-01-29 13:41:00,37.6,37.1,29.50,North,0,0.0,-999.0,98,0.03,,,-99.99,,2013-01-29 22:41:00,
2013-01-29 13:46:00,37.6,37.1,29.50,North,0,0.0,-999.0,98,0.03,,,-99.99,,2013-01-29 22:46:00,
2013-01-29 13:51:00,37.7,37.2,29.50,North,0,0.0,-999.0,97,0.03,,,-99.99,,2013-01-29 22:51:00,
2013-01-29 13:56:00,37.7,37.2,29.50,North,0,0.0,-999.0,97,0.03,,,-99.99,,2013-01-29 22:56:00,
2013-01-29 14:01:00,37.5,37.0,29.49,North,0,0.0,-999.0,98,0.00,,,-99.99,,2013-01-29 23:01:00,
2013-01-29 14:06:00,37.5,37.0,29.49,North,0,0.0,-999.0,97,0.00,,,-99.99,,2013-01-29 23:06:00,
2013-01-29 14:11:00,37.6,37.0,29.49,North,0,0.0,-999.0,97,0.00,,,-99.99,,2013-01-29 23:11:00,
2013-01-29 14:16:00,37.7,37.2,29.49,North,0,0.0,-999.0,98,0.00,,,-99.99,,2013-01-29 23:16:00,
2013-01-29 14:22:00,37.8,37.3,29.49,North,0,0.0,-999.0,98,0.01,,,-99.99,,2013-01-29 23:22:00,
2013-01-29 14:27:00,37.8,37.2,29.49,North,0,0.0,-999.0,98,0.01,,,-99.99,,2013-01-29 23:27:00,
2013-01-29 14:32:00,37.8,37.3,29.49,North,0,0.0,-999.0,98,0.01,,,-99.99,,2013-01-29 23:32:00,
2013-01-29 14:37:00,37.6,37.2,29.49,North,0,0.0,-999.0,98,0.01,,,-99.99,,2013-01-29 23:37:00,
2013-01-29 14:42:00,37.7,37.2,29.49,North,0,0.0,-999.0,97,0.02,,,-99.99,,2013-01-29 23:42:00,
2013-01-29 14:47:00,37.7,37.2,29.49,North,0,0.0,-999.0,98,0.02,,,-99.99,,2013-01-29 23:47:00,
2013-01-29 14:52:00,37.8,37.3,29.49,North,0,0.0,-999.0,98,0.02,,,-99.99,,2013-01-29 23:52:00,
2013-01-29 14:57:00,37.6,37.0,29.49,North,0,0.0,-999.0,97,0.02,,,-99.99,,2013-01-29 23:57:00,
2013-01-29 15:02:00,37.6,37.1,29.49,North,0,0.0,-999.0,98,0.00,,,-99.99,,2013-01-30 00:02:00,
2013-01-29 15:07:00,37.6,37.1,29.49,North,0,0.0,-999.0,98,0.01,,,-99.99,,2013-01-30 00:07:00,
2013-01-29 15:12:00,37.8,37.3,29.49,North,0,0.0,-999.0,98,0.01,,,-99.99,,2013-01-30 00:12:00,
2013-01-29 15:17:00,37.7,37.2,29.49,North,0,0.0,-999.0,97,0.01,,,-99.99,,2013-01-30 00:17:00,
2013-01-29 15:22:00,37.6,37.1,29.49,North,0,0.0,-999.0,97,0.01,,,-99.99,,2013-01-30 00:22:00,
2013-01-29 15:27:00,37.7,37.2,29.49,North,0,0.0,-999.0,98,0.01,,,-99.99,,2013-01-30 00:27:00,
2013-01-29 15:32:00,37.6,37.0,29.49,North,0,0.0,-999.0,97,0.02,,,-99.99,,2013-01-30 00:32:00,
2013-01-29 15:37:00,37.6,37.0,29.49,North,0,0.0,-999.0,97,0.02,,,-99.99,,2013-01-30 00:37:00,
2013-01-29 15:42:00,37.6,37.0,29.49,North,0,0.0,-999.0,97,0.02,,,-99.99,,2013-01-30 00:42:00,
2013-01-29 15:47:00,37.5,36.9,29.49,North,0,0.0,-999.0,97,0.02,,,-99.99,,2013-01-30 00:47:00,
2013-01-29 15:52:00,37.5,37.0,29.49,North,0,0.0,-999.0,97,0.02,,,-99.99,,2013-01-30 00:52:00,
2013-01-29 15:57:00,37.3,36.7,29.49,North,0,0.0,-999.0,97,0.02,,,-99.99,,2013-01-30 00:57:00,
2013-01-29 16:02:00,37.0,36.4,29.49,North,0,0.0,-999.0,97,0.01,,,-99.99,,2013-01-30 01:02:00,
2013-01-29 16:07:00,36.9,36.3,29.49,North,0,0.0,-999.0,97,0.01,,,-99.99,,2013-01-30 01:07:00,
2013-01-29 16:12:00,37.5,37.0,29.49,North,0,0.0,-999.0,98,0.01,,,-99.99,,2013-01-30 01:12:00,
2013-01-29 16:17:00,37.3,36.8,29.49,North,0,0.0,-999.0,97,0.01,,,-99.99,,2013-01-30 01:17:00,
2013-01-29 16:22:00,37.1,36.5,29.49,North,0,0.0,-999.0,97,0.01,,,-99.99,,2013-01-30 01:22:00,
2013-01-29 16:27:00,36.8,36.1,29.49,North,0,0.0,-999.0,97,0.01,,,-99.99,,2013-01-30 01:27:00,
2013-01-29 16:32:00,36.7,36.1,29.49,North,0,0.0,-999.0,97,0.01,,,-99.99,,2013-01-30 01:32:00,
2013-01-29 16:37:00,36.6,36.0,29.49,North,0,0.0,-999.0,97,0.01,,,-99.99,,2013-01-30 01:37:00,
2013-01-29 16:42:00,36.8,36.3,29.49,North,0,0.0,-999.0,97,0.02,,,-99.99,,2013-01-30 01:42:00,
2013-01-29 16:47:00,36.8,36.2,29.49,North,0,0.0,-999.0,97,0.02,,,-99.99,,2013-01-30 01:47:00,
2013-01-29 16:52:00,36.8,36.2,29.49,North,0,0.0,-999.0,97,0.02,,,-99.99,,2013-01-30 01:52:00,
2013-01-29 16:57:00,36.7,36.1,29.49,North,0,0.0,-999.0,97,0.02,,,-99.99,,2013-01-30 01:57:00,
2013-01-29 17:02:00,36.5,35.8,29.48,North,0,0.0,-999.0,97,0.00,,,-99.99,,2013-01-30 02:02:00,
2013-01-29 17:07:00,36.4,35.8,29.48,North,0,0.0,-999.0,97,0.00,,,-99.99,,2013-01-30 02:07:00,
2013-01-29 17:12:00,36.5,35.9,29.48,North,0,0.0,-999.0,97,0.00,,,-99.99,,2013-01-30 02:12:00,
2013-01-29 17:17:00,36.3,35.7,29.48,North,0,0.0,-999.0,97,0.01,,,-99.99,,2013-01-30 02:17:00,
2013-01-29 17:22:00,36.0,35.5,29.48,North,0,0.0,-999.0,97,0.01,,,-99.99,,2013-01-30 02:22:00,
2013-01-29 17:27:00,36.3,35.8,29.48,North,0,0.0,-999.0,97,0.01,,,-99.99,,2013-01-30 02:27:00,
2013-01-29 17:32:00,36.1,35.6,29.48,North,0,0.0,-999.0,97,0.01,,,-99.99,,2013-01-30 02:32:00,
2013-01-29 17:37:00,35.8,35.2,29.48,North,0,0.0,-999.0,97,0.01,,,-99.99,,2013-01-30 02:37:00,
2013-01-29 17:42:00,36.0,35.5,29.48,North,0,0.0,-999.0,97,0.01,,,-99.99,,2013-01-30 02:42:00,
2013-01-29 17:47:00,35.8,35.3,29.48,North,0,0.0,-999.0,97,0.01,,,-99.99,,2013-01-30 02:47:00,
2013-01-29 17:52:00,35.8,35.3,29.48,North,0,0.0,-999.0,97,0.01,,,-99.99,,2013-01-30 02:52:00,
2013-01-29 17:57:00,35.6,35.0,29.48,North,0,0.0,-999.0,97,0.01,,,-99.99,,2013-01-30 02:57:00,
2013-01-29 18:02:00,35.5,35.0,29.50,North,0,0.0,-999.0,98,0.00,,,-99.99,,2013-01-30 03:02:00,
2013-01-29 18:07:00,35.7,35.2,29.50,North,0,0.0,-999.0,97,0.00,,,-99.99,,2013-01-30 03:07:00,
2013-01-29 18:12:00,35.6,35.1,29.50,North,0,0.0,-999.0,97,0.01,,,-99.99,,2013-01-30 03:12:00,
2013-01-29 18:17:00,35.6,35.1,29.50,North,0,0.0,-999.0,98,0.01,,,-99.99,,2013-01-30 03:17:00,
2013-01-29 18:22:00,35.6,35.1,29.50,North,0,0.0,-999.0,97,0.01,,,-99.99,,2013-01-30 03:22:00,
2013-01-29 18:27:00,35.4,34.9,29.50,North,0,0.0,-999.0,97,0.01,,,-99.99,,2013-01-30 03:27:00,
2013-01-29 18:32:00,35.4,34.8,29.50,North,0,0.0,-999.0,97,0.01,,,-99.99,,2013-01-30 03:32:00,
2013-01-29 18:37:00,35.2,34.8,29.50,North,0,0.0,-999.0,98,0.01,,,-99.99,,2013-01-30 03:37:00,
2013-01-29 18:42:00,35.5,35.0,29.50,North,0,0.0,-999.0,98,0.01,,,-99.99,,2013-01-30 03:42:00,
2013-01-29 18:47:00,35.4,34.9,29.50,North,0,0.0,-999.0,98,0.01,,,-99.99,,2013-01-30 03:47:00,
2013-01-29 18:52:00,35.3,34.8,29.50,North,0,0.0,-999.0,98,0.01,,,-99.99,,2013-01-30 03:52:00,
2013-01-29 18:57:00,35.4,34.9,29.50,North,0,0.0,-999.0,98,0.01,,,-99.99,,2013-01-30 03:57:00,
2013-01-29 19:02:00,35.4,34.8,29.48,North,0,0.0,-999.0,98,0.00,,,-99.99,,2013-01-30 04:02:00,
2013-01-29 19:07:00,35.8,35.3,29.48,North,0,0.0,-999.0,98,0.00,,,-99.99,,2013-01-30 04:07:00,
2013-01-29 19:12:00,35.5,35.0,29.48,North,0,0.0,-999.0,97,0.01,,,-99.99,,2013-01-30 04:12:00,
2013-01-29 19:17:00,35.3,34.8,29.48,North,0,0.0,-999.0,98,0.01,,,-99.99,,2013-01-30 04:17:00,
2013-01-29 19:22:00,35.1,34.6,29.48,North,0,0.0,-999.0,98,0.01,,,-99.99,,2013-01-30 04:22:00,
2013-01-29 19:27:00,35.4,34.9,29.48,North,0,0.0,-999.0,98,0.01,,,-99.99,,2013-01-30 04:27:00,
2013-01-29 19:32:00,35.4,34.9,29.48,North,0,0.0,-999.0,98,0.01,,,-99.99,,2013-01-30 04:32:00,
2013-01-29 19:37:00,35.4,34.9,29.48,North,0,0.0,-999.0,98,0.01,,,-99.99,,2013-01-30 04:37:00,
2013-01-29 19:42:00,35.2,34.7,29.48,North,0,0.0,-999.0,97,0.01,,,-99.99,,2013-01-30 04:42:00,
2013-01-29 19:47:00,35.2,34.7,29.48,North,0,0.0,-999.0,98,0.01,,,-99.99,,2013-01-30 04:47:00,
2013-01-29 19:52:00,35.2,34.7,29.48,North,0,0.0,-999.0,98,0.01,,,-99.99,,2013-01-30 04:52:00,
2013-01-29 19:57:00,35.2,34.8,29.48,North,0,0.0,-999.0,98,0.01,,,-99.99,,2013-01-30 04:57:00,
2013-01-29 20:01:00,35.3,34.8,29.51,North,0,0.0,-999.0,98,0.00,,,-99.99,,2013-01-30 05:01:00,
2013-01-29 20:05:00,35.4,35.0,29.51,North,0,0.0,-999.0,98,0.00,,,-99.99,,2013-01-30 05:05:00,
2013-01-29 20:06:00,35.5,35.1,29.51,North,0,0.0,-999.0,98,0.00,,,-99.99,,2013-01-30 05:06:00,
2013-01-29 20:08:00,35.5,35.1,29.51,North,0,0.0,-999.0,98,0.00,,,-99.99,,2013-01-30 05:08:00,
2013-01-29 20:13:00,35.8,35.4,29.51,North,0,0.0,-999.0,98,0.00,,,-99.99,,2013-01-30 05:13:00,
2013-01-29 20:18:00,35.9,35.4,29.51,North,0,0.0,-999.0,98,0.00,,,-99.99,,2013-01-30 05:18:00,
2013-01-29 20:23:00,36.0,35.5,29.51,North,0,0.0,-999.0,98,0.00,,,-99.99,,2013-01-30 05:23:00,
2013-01-29 20:28:00,36.0,35.5,29.51,North,0,0.0,-999.0,98,0.00,,,-99.99,,2013-01-30 05:28:00,
2013-01-29 20:33:00,36.0,35.5,29.51,North,0,0.0,-999.0,97,0.00,,,-99.99,,2013-01-30 05:33:00,
2013-01-29 20:38:00,35.8,35.3,29.51,North,0,0.0,-999.0,97,0.00,,,-99.99,,2013-01-30 05:38:00,
2013-01-29 20:43:00,35.6,35.1,29.51,North,0,0.0,-999.0,98,0.01,,,-99.99,,2013-01-30 05:43:00,
2013-01-29 20:48:00,35.3,34.8,29.51,North,0,0.0,-999.0,97,0.01,,,-99.99,,2013-01-30 05:48:00,
2013-01-29 20:53:00,35.3,34.8,29.51,North,0,0.0,-999.0,97,0.01,,,-99.99,,2013-01-30 05:53:00,
2013-01-29 20:58:00,35.2,34.7,29.51,North,0,0.0,-999.0,97,0.01,,,-99.99,,2013-01-30 05:58:00,
2013-01-29 21:03:00,35.2,34.7,29.52,North,0,0.0,-999.0,98,0.00,,,-99.99,,2013-01-30 06:03:00,
2013-01-29 21:08:00,35.3,34.8,29.52,North,0,0.0,-999.0,98,0.00,,,-99.99,,2013-01-30 06:08:00,
2013-01-29 21:13:00,35.3,34.8,29.52,North,0,0.0,-999.0,98,0.00,,,-99.99,,2013-01-30 06:13:00,
2013-01-29 21:18:00,35.5,35.0,29.52,North,0,0.0,-999.0,98,0.00,,,-99.99,,2013-01-30 06:18:00,
2013-01-29 21:23:00,35.5,35.0,29.52,North,0,0.0,-999.0,98,0.00,,,-99.99,,2013-01-30 06:23:00,
2013-01-29 21:28:00,35.4,34.9,29.52,North,0,0.0,-999.0,98,0.00,,,-99.99,,2013-01-30 06:28:00,
2013-01-29 21:33:00,35.4,34.9,29.52,North,0,0.0,-999.0,97,0.00,,,-99.99,,2013-01-30 06:33:00,
2013-01-29 21:38:00,35.4,34.9,29.52,North,0,0.0,-999.0,98,0.00,,,-99.99,,2013-01-30 06:38:00,
2013-01-29 21:43:00,35.3,34.8,29.52,North,0,0.0,-999.0,97,0.00,,,-99.99,,2013-01-30 06:43:00,
2013-01-29 21:48:00,35.0,34.6,29.52,North,0,0.0,-999.0,98,0.00,,,-99.99,,2013-01-30 06:48:00,
2013-01-29 21:53:00,35.4,34.9,29.52,North,0,0.0,-999.0,98,0.00,,,-99.99,,2013-01-30 06:53:00,
2013-01-29 21:58:00,35.0,34.5,29.52,North,0,0.0,-999.0,97,0.00,,,-99.99,,2013-01-30 06:58:00,
2013-01-29 22:03:00,35.3,34.8,29.52,North,0,0.0,-999.0,98,0.00,,,-99.99,,2013-01-30 07:03:00,
2013-01-29 22:08:00,35.2,34.7,29.52,North,0,0.0,-999.0,98,0.00,,,-99.99,,2013-01-30 07:08:00,
2013-01-29 22:13:00,35.2,34.7,29.52,North,0,0.0,-999.0,97,0.00,,,-99.99,,2013-01-30 07:13:00,
2013-01-29 22:18:00,35.2,34.7,29.52,North,0,0.0,-999.0,97,0.00,,,-99.99,,2013-01-30 07:18:00,
2013-01-29 22:23:00,34.9,34.4,29.52,North,0,0.0,-999.0,98,0.00,,,-99.99,,2013-01-30 07:23:00,
2013-01-29 22:28:00,35.0,34.6,29.52,North,0,0.0,-999.0,98,0.00,,,-99.99,,2013-01-30 07:28:00,
2013-01-29 22:33:00,35.0,34.5,29.52,North,0,0.0,-999.0,98,0.00,,,-99.99,,2013-01-30 07:33:00,
2013-01-29 22:38:00,35.0,34.5,29.52,North,0,0.0,-999.0,98,0.00,,,-99.99,,2013-01-30 07:38:00,
2013-01-29 22:43:00,35.0,34.6,29.52,North,0,0.0,-999.0,98,0.00,,,-99.99,,2013-01-30 07:43:00,
2013-01-29 22:48:00,35.0,34.5,29.52,North,0,0.0,-999.0,98,0.00,,,-99.99,,2013-01-30 07:48:00,
2013-01-29 22:53:00,34.9,34.5,29.52,North,0,0.0,-999.0,98,0.00,,,-99.99,,2013-01-30 07:53:00,
2013-01-29 22:58:00,34.9,34.5,29.52,North,0,0.0,-999.0,98,0.00,,,-99.99,,2013-01-30 07:58:00,
2013-01-29 23:03:00,35.1,34.6,29.52,North,0,0.0,-999.0,98,0.00,,,-99.99,,2013-01-30 08:03:00,
2013-01-29 23:08:00,34.9,34.5,29.52,North,0,0.0,-999.0,98,0.00,,,-99.99,,2013-01-30 08:08:00,
2013-01-29 23:13:00,35.7,35.3,29.52,North,0,0.0,-999.0,98,0.00,,,-99.99,,2013-01-30 08:13:00,
2013-01-29 23:18:00,35.6,35.1,29.52,North,0,0.0,-999.0,98,0.00,,,-99.99,,2013-01-30 08:18:00,
2013-01-29 23:23:00,36.0,35.5,29.52,North,0,0.0,-999.0,98,0.00,,,-99.99,,2013-01-30 08:23:00,
2013-01-29 23:28:00,36.0,35.6,29.52,North,0,0.0,-999.0,98,0.00,,,-99.99,,2013-01-30 08:28:00,
2013-01-29 23:33:00,36.7,36.2,29.52,North,0,0.0,-999.0,98,0.00,,,-99.99,,2013-01-30 08:33:00,
2013-01-29 23:38:00,37.2,36.7,29.52,North,0,0.0,-999.0,98,0.00,,,-99.99,,2013-01-30 08:38:00,
2013-01-29 23:43:00,36.7,36.2,29.52,North,0,0.0,-999.0,98,0.00,,,-99.99,,2013-01-30 08:43:00,
2013-01-29 23:48:00,37.2,36.8,29.52,North,0,0.0,-999.0,98,0.00,,,-99.99,,2013-01-30 08:48:00,
2013-01-29 23:53:00,37.3,36.9,29.52,North,0,0.0,-999.0,98,0.00,,,-99.99,,2013-01-30 08:53:00,
2013-01-29 23:58:00,36.8,36.2,29.52,North,0,0.0,-999.0,97,0.00,,,-99.99,,2013-01-30 08:58:00,